This demonstration page uses our WeatherBlox Daily Observations layout. Learn more.

Left ArrowRight Arrow

41.86663, -103.66717

Hourly Observations for May 12, 2018

Temp ( °F °C ) Dew Point ( °F °C ) Humidity (%) Winds ( mph kmh ) Pressure ( in mb ) Visibility ( mi km ) Precip ( " mm )
12:29 am 00:29 Cloudy 46 8 N/A N/A NE 13 20 29.94 1014 10 16 0.00 0.03
12:53 am 00:53 Cloudy with Haze 46 8 N/A N/A NNE 12 19 29.94 1014 5 8 0.00 0.03
1:17 am 01:17 Cloudy with Light Rain 46 8 N/A N/A NNE 14 22 29.94 1014 4 6 0.00 0.03
1:53 am 01:53 Cloudy 46 8 N/A N/A NNE 15 24 29.91 1013 10 16 0.00 0.03
2:53 am 02:53 Cloudy with Light Rain 46 8 N/A N/A NE 14 22 29.90 1012 10 16 0.00 0.03
3:53 am 03:53 Cloudy 46 8 N/A N/A NE 13 20 29.92 1013 8 13 0.01 0.25
4:53 am 04:53 Cloudy 45 7 N/A N/A NE 9 15 29.95 1014 7 11 0.00 0.00
5:24 am 05:24 Cloudy with Light Rain 45 7 N/A N/A WSW 7 11 30.00 1016 9 14 0.00 0.00
5:33 am 05:33 Cloudy with Light Rain 45 7 N/A N/A VRB 3 6 30.00 1016 8 13 0.00 0.03
5:53 am 05:53 Cloudy with Light Rain 45 7 N/A N/A NE 7 11 29.98 1015 6 10 0.00 0.03
6:20 am 06:20 Cloudy with Light Rain 46 8 N/A N/A NNE 3 6 29.97 1015 4 6 0.00 0.00
6:53 am 06:53 Cloudy with Light Rain 46 7.8 46 7.8 100 100 ENE 5 7 29.98 1015 7 11 0.02 0.51
7:19 am 07:19 Cloudy 46 7.8 46 7.8 100 100 ENE 7 11 30.03 1017 10 16 0.00 0.03
7:44 am 07:44 Cloudy 46 8 46 8 100 100 ENE 7 11 30.03 1017 10 16 0.00 0.00
7:53 am 07:53 Cloudy 46 7.8 46 7.8 100 100 NE 8 13 30.01 1016 10 16 0.00 0.03
8:03 am 08:03 Cloudy 46 7.8 46 7.8 100 100 NE 8 13 30.03 1017 10 16 0.00 0.00
8:53 am 08:53 Cloudy 47 8.3 46 7.8 97 97 NE 8 13 30.01 1016 10 16 0.00 0.00
9:27 am 09:27 Cloudy 48 8.9 47 8.3 96 96 NE 6 9 30.03 1017 10 16 0.00 0.00
9:53 am 09:53 Cloudy 47 8.3 46 7.8 97 97 ENE 8 13 30.02 1017 10 16 0.00 0.00
10:53 am 10:53 Cloudy with Mist and Fog 47 8.3 47 8.3 100 100 E 12 19 30.04 1017 3 5 0.00 0.00
11:00 am 11:00 Cloudy with Mist and Fog 46 8 46 8 100 100 E 10 17 30.06 1018 3 4 0.00 0.00
11:17 am 11:17 Cloudy with Mist and Fog 48 8.9 48 8.9 100 100 E 8 13 30.03 1017 3 5 0.00 0.00
11:24 am 11:24 Cloudy with Mist and Fog 48 9 48 9 100 100 E 10 17 30.03 1017 4 6 0.00 0.00
11:46 am 11:46 Cloudy 48 9 48 9 100 100 E 9 15 30.03 1017 7 11 0.00 0.00
11:53 am 11:53 Cloudy 49 9.4 48 8.9 97 97 ENE 9 15 30.02 1017 7 11 0.00 0.00
12:18 pm 12:18 Cloudy 49 9.4 48 8.9 97 97 ENE 8 13 30.03 1017 10 16 0.00 0.00
12:53 pm 12:53 Cloudy 50 10 48 8.9 93 93 ENE 8 13 30.00 1016 10 16 0.00 0.00
1:53 pm 13:53 Cloudy 53 11.7 49 9.4 86 86 ENE 7 11 29.98 1015 10 16 0.00 0.00
2:53 pm 14:53 Cloudy 54 12.2 50 10 87 87 E 9 15 29.97 1015 10 16 0.00 0.00
3:38 pm 15:38 Cloudy 54 12.2 50 10 87 87 E 10 17 29.91 1013 10 16 0.00 0.00
3:50 pm 15:50 Cloudy 54 12 50 10 88 88 ENE 9 15 29.91 1013 10 16 0.00 0.00
3:53 pm 15:53 Cloudy 55 12.8 50 10 83 83 E 10 17 29.96 1015 10 16 0.00 0.00
4:03 pm 16:03 Cloudy 54 12.2 50 10 87 87 ENE 12 19 29.91 1013 10 16 0.00 0.00
4:53 pm 16:53 Cloudy 54 12.2 50 10 87 87 ENE 14 22 29.96 1015 10 16 0.00 0.00
5:02 pm 17:02 Cloudy 54 12 50 10 88 88 NE 13 20 29.91 1013 10 16 0.00 0.00
5:53 pm 17:53 Cloudy 53 11.7 51 10.6 93 93 ENE 13 20 29.97 1015 10 16 0.00 0.00
6:53 pm 18:53 Cloudy with Mist and Fog 50 10 50 10 100 100 NE 13 20 29.99 1016 3 4 0.00 0.00
7:00 pm 19:00 Cloudy with Mist and Fog 50 10 50 10 100 100 ENE 14 22 29.94 1014 4 6 0.00 0.00
7:53 pm 19:53 Cloudy 50 10 49 9.4 96 96 ENE 13 20 30.00 1016 10 16 0.00 0.00
8:53 pm 20:53 Cloudy with Mist and Fog 49 9.4 49 9.4 100 100 ENE 10 17 30.03 1017 6 10 0.00 0.00
9:02 pm 21:02 Cloudy 48 9 48 9 100 100 ENE 9 15 30.03 1017 8 13 0.00 0.00
9:17 pm 21:17 Cloudy 49 9.4 49 9.4 100 100 NE 7 11 30.03 1017 10 16 0.00 0.00
9:20 pm 21:20 Cloudy 48 9 48 9 100 100 NE 8 13 30.03 1017 10 16 0.00 0.00
9:29 pm 21:29 Cloudy 49 9.4 49 9.4 100 100 NE 10 17 30.03 1017 10 16 0.00 0.00
9:45 pm 21:45 Cloudy 49 9.4 48 8.9 97 97 NE 10 17 30.03 1017 10 16 0.00 0.00
9:53 pm 21:53 Cloudy 48 8.9 48 8.9 100 100 ENE 13 20 30.04 1017 10 16 0.00 0.00
10:00 pm 22:00 Cloudy 48 9 48 9 100 100 E 8 13 30.06 1018 10 16 0.00 0.00
10:29 pm 22:29 Cloudy 48 8.9 47 8.3 96 96 VRB 5 7 30.06 1018 10 16 0.00 0.00
10:53 pm 22:53 Cloudy 48 8.9 47 8.3 96 96 E 5 7 30.07 1018 10 16 0.00 0.03
11:22 pm 23:22 Cloudy 48 9 46 8 94 94 E 8 13 30.03 1017 10 16 0.00 0.00
11:53 pm 23:53 Cloudy with Thunderstorms 47 8.3 47 8.3 100 100 E 12 19 30.05 1018 10 16 0.00 0.03

Powered by AerisWeather